TimeCST,TemperatureF,Dew PointF,Humidity,Sea Level PressureIn,VisibilityMPH,Wind Direction,Wind SpeedMPH,Gust SpeedMPH,PrecipitationIn,Events,Conditions,WindDirDegrees,DateUTC
12:15 AM,54.3,49.1,83,30.22,7.0,Calm,Calm,-,N/A,,Clear,0,2013-01-20 06:15:00
12:35 AM,53.6,48.4,82,30.21,7.0,Calm,Calm,-,N/A,,Clear,0,2013-01-20 06:35:00
12:55 AM,53.4,48.2,82,30.21,7.0,Calm,Calm,-,N/A,,Clear,0,2013-01-20 06:55:00
1:15 AM,52.7,46.9,81,30.20,7.0,Calm,Calm,-,N/A,,Clear,0,2013-01-20 07:15:00
1:35 AM,52.7,47.1,81,30.20,7.0,Calm,Calm,-,N/A,,Clear,0,2013-01-20 07:35:00
1:55 AM,51.1,46.8,85,30.19,7.0,East,3.5,-,N/A,,Clear,90,2013-01-20 07:55:00
2:15 AM,51.8,48.2,88,30.19,7.0,Calm,Calm,-,N/A,,Clear,0,2013-01-20 08:15:00
2:35 AM,52.9,49.1,87,30.19,7.0,Calm,Calm,-,N/A,,Clear,0,2013-01-20 08:35:00
2:55 AM,52.7,48.9,87,30.19,7.0,Calm,Calm,-,N/A,,Clear,0,2013-01-20 08:55:00
3:35 AM,52.7,49.1,88,30.18,7.0,Calm,Calm,-,N/A,,Clear,0,2013-01-20 09:35:00
3:55 AM,52.5,48.9,88,30.18,7.0,Calm,Calm,-,N/A,,Clear,0,2013-01-20 09:55:00
4:15 AM,50.9,47.3,87,30.18,7.0,Calm,Calm,-,N/A,,Clear,0,2013-01-20 10:15:00
4:35 AM,49.8,46.0,87,30.18,7.0,Calm,Calm,-,N/A,,Clear,0,2013-01-20 10:35:00
4:55 AM,49.3,45.9,88,30.19,7.0,NW,4.6,-,N/A,,Clear,320,2013-01-20 10:55:00
5:15 AM,49.1,45.9,89,30.20,7.0,Calm,Calm,-,N/A,,Clear,0,2013-01-20 11:15:00
5:35 AM,49.3,46.2,89,30.20,7.0,Calm,Calm,-,N/A,,Clear,0,2013-01-20 11:35:00
5:55 AM,48.7,45.7,89,30.20,5.0,NNW,5.8,-,N/A,,Clear,330,2013-01-20 11:55:00
6:15 AM,48.4,45.5,90,30.20,5.0,North,3.5,-,N/A,,Clear,360,2013-01-20 12:15:00
6:35 AM,48.7,45.9,90,30.20,5.0,North,3.5,-,N/A,,Clear,350,2013-01-20 12:35:00
6:55 AM,48.4,45.7,90,30.20,5.0,Calm,Calm,-,N/A,,Clear,0,2013-01-20 12:55:00
7:15 AM,48.6,45.9,90,30.21,5.0,NNW,3.5,-,N/A,,Clear,330,2013-01-20 13:15:00
7:35 AM,48.7,46.0,90,30.22,4.0,NNW,3.5,-,N/A,,Scattered Clouds,330,2013-01-20 13:35:00
7:55 AM,49.3,46.6,90,30.22,3.0,Calm,Calm,-,N/A,,Clear,0,2013-01-20 13:55:00
8:15 AM,50.5,47.8,90,30.23,3.0,Calm,Calm,-,N/A,,Clear,0,2013-01-20 14:15:00
8:35 AM,52.0,49.1,90,30.23,5.0,Calm,Calm,-,N/A,,Clear,0,2013-01-20 14:35:00
8:55 AM,53.6,49.8,87,30.24,5.0,NNW,3.5,-,N/A,,Clear,340,2013-01-20 14:55:00
9:15 AM,55.6,50.5,83,30.25,5.0,NNW,3.5,-,N/A,,Haze,330,2013-01-20 15:15:00
9:35 AM,58.6,51.4,77,30.25,5.0,Calm,Calm,-,N/A,,Haze,0,2013-01-20 15:35:00
9:55 AM,61.3,52.0,71,30.25,7.0,Calm,Calm,-,N/A,,Scattered Clouds,0,2013-01-20 15:55:00
10:15 AM,65.5,52.9,64,30.25,5.0,Calm,Calm,-,N/A,,Haze,0,2013-01-20 16:15:00
10:35 AM,67.6,53.2,60,30.25,7.0,Calm,Calm,-,N/A,,Clear,0,2013-01-20 16:35:00
10:55 AM,69.8,53.6,56,30.25,7.0,SE,5.8,-,N/A,,Clear,130,2013-01-20 16:55:00
11:15 AM,72.0,54.7,54,30.24,7.0,ESE,5.8,-,N/A,,Clear,120,2013-01-20 17:15:00
11:55 AM,73.4,55.4,53,30.21,7.0,SSE,4.6,-,N/A,,Scattered Clouds,150,2013-01-20 17:55:00
12:15 PM,73.9,55.2,52,30.20,7.0,Calm,Calm,-,N/A,,Mostly Cloudy,0,2013-01-20 18:15:00
12:35 PM,74.3,54.7,50,30.18,7.0,Calm,Calm,-,N/A,,Scattered Clouds,0,2013-01-20 18:35:00
1:15 PM,76.1,53.4,45,30.15,7.0,SSW,5.8,-,N/A,,Scattered Clouds,200,2013-01-20 19:15:00
1:35 PM,77.0,52.3,42,30.14,7.0,South,8.1,-,N/A,,Mostly Cloudy,190,2013-01-20 19:35:00
1:55 PM,77.0,52.5,42,30.12,7.0,ESE,8.1,-,N/A,,Scattered Clouds,120,2013-01-20 19:55:00
2:15 PM,76.6,50.5,40,30.11,7.0,SSW,8.1,-,N/A,,Mostly Cloudy,200,2013-01-20 20:15:00
2:35 PM,77.5,50.5,39,30.11,7.0,South,6.9,-,N/A,,Scattered Clouds,190,2013-01-20 20:35:00
2:55 PM,78.3,50.2,37,30.10,7.0,ESE,6.9,-,N/A,,Scattered Clouds,120,2013-01-20 20:55:00
3:15 PM,76.6,50.0,39,30.09,7.0,Calm,Calm,-,N/A,,Scattered Clouds,0,2013-01-20 21:15:00
3:35 PM,78.8,48.4,34,30.08,7.0,South,8.1,-,N/A,,Mostly Cloudy,180,2013-01-20 21:35:00
3:55 PM,78.8,49.3,35,30.09,10.0,South,5.8,-,N/A,,Mostly Cloudy,180,2013-01-20 21:55:00
4:15 PM,78.1,49.6,37,30.09,7.0,SSE,5.8,-,N/A,,Scattered Clouds,150,2013-01-20 22:15:00
4:55 PM,77.7,50.2,38,30.09,7.0,SE,8.1,-,N/A,,Scattered Clouds,140,2013-01-20 22:55:00
5:15 PM,76.6,50.2,39,30.09,7.0,SE,8.1,-,N/A,,Clear,140,2013-01-20 23:15:00
5:35 PM,74.8,52.9,46,30.10,7.0,ESE,12.7,-,N/A,,Scattered Clouds,110,2013-01-20 23:35:00
5:55 PM,72.7,53.6,51,30.10,7.0,ESE,11.5,-,N/A,,Scattered Clouds,110,2013-01-20 23:55:00
6:15 PM,71.1,53.4,54,30.11,7.0,ESE,12.7,-,N/A,,Scattered Clouds,120,2013-01-21 00:15:00
6:35 PM,69.8,53.1,55,30.11,7.0,East,11.5,-,N/A,,Clear,100,2013-01-21 00:35:00
6:55 PM,68.4,53.1,58,30.12,7.0,ESE,10.4,-,N/A,,Clear,110,2013-01-21 00:55:00
7:15 PM,67.8,52.5,58,30.12,7.0,ESE,10.4,-,N/A,,Clear,110,2013-01-21 01:15:00
7:35 PM,66.7,52.0,59,30.13,7.0,ESE,10.4,-,N/A,,Clear,110,2013-01-21 01:35:00
7:55 PM,66.2,52.7,62,30.13,7.0,ESE,9.2,-,N/A,,Clear,110,2013-01-21 01:55:00
8:15 PM,65.3,53.2,65,30.14,7.0,ESE,8.1,-,N/A,,Clear,110,2013-01-21 02:15:00
8:35 PM,64.9,53.6,67,30.14,7.0,ESE,6.9,-,N/A,,Clear,110,2013-01-21 02:35:00
8:55 PM,64.2,53.8,69,30.14,7.0,ESE,5.8,-,N/A,,Clear,120,2013-01-21 02:55:00
9:15 PM,62.8,53.6,72,30.14,7.0,ESE,6.9,-,N/A,,Clear,120,2013-01-21 03:15:00
9:55 PM,62.1,53.6,74,30.15,10.0,ESE,4.6,-,N/A,,Clear,120,2013-01-21 03:55:00
11:15 PM,59.7,53.2,79,30.16,7.0,SE,4.6,-,N/A,,Clear,130,2013-01-21 05:15:00
11:35 PM,59.5,53.1,79,30.16,7.0,SE,3.5,-,N/A,,Clear,140,2013-01-21 05:35:00